QPF
0.00 0.00 0.00 0.00 0.00 0.00 0.00 0.00 0.00 0.01 0.01 0.01 0.03 0.00 0.00 0.01 0.00 0.00 0.00 0.00 0.00 0.00 0.00 0.00 0.00 0.00 0.00 0.00 0.00 0.00 0.00 0.00 0.00 0.01 0.01 0.02 0.02 0.02 0.05 0.03 0.00 0.00 0.00
0.00 0.00 0.00 0.00 0.00 0.00 0.00 0.00 0.00 0.00 0.01 0.03 0.03 0.08 0.05 0.06 0.06 0.02 0.02 0.02 0.00 0.00 0.00 0.00 0.00 0.00 0.00 0.00 0.00 0.00 0.00 0.00 0.00 0.00 0.01 0.01 0.01 0.01 0.05 0.03 0.01 0.00 0.00
0.02 0.00 0.00 0.00 0.00 0.00 0.00 0.00 0.00 0.00 0.00 0.03 0.02 0.02 0.03 0.04 0.02 0.03 0.03 0.01 0.00 0.00 0.00 0.00 0.00 0.00 0.00 0.01 0.01 0.02 0.02 0.00 0.00 0.00 0.00 0.00 0.00 0.01 0.01 0.01 0.00 0.00 0.00
0.04 0.01 0.00 0.00 0.00 0.00 0.00 0.00 0.00 0.00 0.00 0.00 0.00 0.00 0.00 0.00 0.00 0.00 0.00 0.00 0.03 0.00 0.00 0.00 0.00 0.00 0.00 0.02 0.02 0.04 0.03 0.01 0.00 0.00 0.00 0.00 0.00 0.00 0.00 0.00 0.00 0.00 0.00
0.18 0.09 0.01 0.00 0.00 0.01 0.01 0.00 0.00 0.00 0.00 0.00 0.00 0.00 0.00 0.00 0.00 0.01 0.00 0.01 0.04 0.01 0.00 0.00 0.00 0.00 0.01 0.03 0.01 0.00 0.01 0.00 0.01 0.01 0.00 0.00 0.01 0.00 0.00 0.00 0.00 0.00 0.00
0.09 0.07 0.06 0.05 0.01 0.00 0.02 0.04 0.04 0.03 0.02 0.01 0.00 0.00 0.00 0.00 0.07 0.10 0.06 0.01 0.00 0.00 0.03 0.08 0.00 0.00 0.01 0.03 0.05 0.01 0.00 0.07 0.18 0.09 0.08 0.10 0.07 0.02 0.00 0.00 0.00 0.00 0.00
0.03 0.02 0.05 0.10 0.09 0.03 0.01 0.03 0.05 0.06 0.09 0.06 0.05 0.06 0.01 0.01 0.00 0.02 0.06 0.04 0.01 0.05 0.01 0.11 0.04 0.00 0.00 0.01 0.01 0.01 0.01 0.00 0.01 0.00 0.01 0.06 0.05 0.05 0.05 0.02 0.01 0.00 0.01
0.01 0.02 0.02 0.03 0.05 0.03 0.03 0.03 0.03 0.04 0.04 0.05 0.04 0.09 0.15 0.14 0.09 0.02 0.00 0.00 0.00 0.01 0.00 0.00 0.00 0.00 0.00 0.00 0.00 0.01 0.01 0.00 0.00 0.00 0.00 0.00 0.00 0.00 0.01 0.04 0.04 0.04 0.02
0.00 0.00 0.01 0.01 0.01 0.01 0.03 0.05 0.08 0.07 0.06 0.06 0.07 0.08 0.09 0.03 0.02 0.01 0.00 0.00 0.04 0.09 0.00 0.05 0.04 0.00 0.03 0.04 0.01 0.00 0.00 0.00 0.00 0.00 0.00 0.00 0.00 0.00 0.00 0.03 0.05 0.07 0.04
0.01 0.01 0.00 0.04 0.04 0.01 0.01 0.05 0.10 0.16 0.12 0.06 0.06 0.07 0.09 0.09 0.06 0.06 0.05 0.00 0.00 0.00 0.00 0.00 0.00 0.00 0.04 0.03 0.06 0.03 0.00 0.00 0.00 0.00 0.00 0.00 0.00 0.00 0.00 0.00 0.00 0.02 0.02
0.00 0.00 0.02 0.03 0.05 0.06 0.04 0.03 0.05 0.11 0.16 0.16 0.09 0.06 0.09 0.13 0.16 0.23 0.21 0.14 0.10 0.07 0.03 0.01 0.02 0.07 0.02 0.02 0.02 0.04 0.03 0.01 0.00 0.00 0.00 0.00 0.00 0.00 0.00 0.00 0.00 0.00 0.01
0.00 0.00 0.00 0.00 0.00 0.02 0.05 0.08 0.03 0.04 0.06 0.07 0.09 0.10 0.11 0.10 0.08 0.08 0.05 0.03 0.01 0.01 0.01 0.00 0.00 0.01 0.01 0.01 0.02 0.01 0.01 0.00 0.00 0.00 0.00 0.00 0.00 0.00 0.00 0.00 0.00 0.00 0.00
0.00 0.00 0.00 0.00 0.00 0.00 0.00 0.00 0.00 0.01 0.02 0.03 0.03 0.03 0.03 0.02 0.01 0.00 0.00 0.00 0.00 0.00 0.00 0.00 0.00 0.00 0.00 0.00 0.00 0.00 0.00 0.00 0.00 0.00 0.00 0.00 0.00 0.00 0.00 0.00 0.00 0.00 0.00
0.01 0.00 0.00 0.00 0.00 0.00 0.00 0.00 0.00 0.00 0.00 0.00 0.00 0.00 0.00 0.00 0.00 0.00 0.00 0.00 0.00 0.00 0.00 0.00 0.00 0.00 0.00 0.00 0.00 0.00 0.00 0.00 0.00 0.00 0.00 0.00 0.00 0.00 0.00 0.00 0.00 0.00 0.00
0.00 0.00 0.00 0.00 0.00 0.00 0.00 0.00 0.00 0.00 0.00 0.00 0.00 0.00 0.00 0.00 0.00 0.00 0.00 0.00 0.00 0.00 0.00 0.00 0.00 0.00 0.00 0.00 0.00 0.00 0.00 0.00 0.00 0.00 0.00 0.00 0.00 0.00 0.00 0.00 0.00 0.00 0.00
0.00 0.00 0.00 0.00 0.00 0.00 0.00 0.00 0.00 0.00 0.00 0.00 0.00 0.01 0.00 0.00 0.00 0.00 0.00 0.00 0.00 0.00 0.00 0.00 0.00 0.00 0.00 0.00 0.00 0.00 0.00 0.00 0.00 0.00 0.00 0.00 0.00 0.00 0.00 0.00 0.00 0.00 0.00
0.00 0.00 0.00 0.00 0.00 0.00 0.00 0.00 0.00 0.00 0.00 0.00 0.00 0.00 0.00 0.00 0.00 0.00 0.00 0.00 0.00 0.00 0.00 0.00 0.00 0.00 0.00 0.00 0.00 0.00 0.00 0.00 0.00 0.00 0.00 0.00 0.00 0.00 0.00 0.00 0.00 0.00 0.00
0.00 0.00 0.00 0.00 0.00 0.00 0.01 0.01 0.01 0.01 0.02 0.02 0.01 0.00 0.00 0.00 0.00 0.00 0.00 0.00 0.00 0.00 0.00 0.00 0.00 0.00 0.00 0.00 0.00 0.00 0.00 0.00 0.00 0.00 0.00 0.00 0.00 0.00 0.00 0.00 0.00 0.00 0.00
0.00 0.00 0.00 0.00 0.00 0.00 0.00 0.00 0.00 0.00 0.00 0.00 0.00 0.00 0.00 0.00 0.00 0.00 0.00 0.00 0.00 0.00 0.00 0.00 0.00 0.00 0.00 0.00 0.00 0.00 0.00 0.00 0.00 0.00 0.00 0.00 0.00 0.00 0.00 0.00 0.00 0.00 0.00
0.00 0.00 0.00 0.00 0.00 0.00 0.00 0.00 0.00 0.00 0.00 0.00 0.00 0.00 0.00 0.00 0.00 0.00 0.00 0.00 0.00 0.00 0.00 0.00 0.00 0.00 0.00 0.00 0.00 0.00 0.00 0.00 0.00 0.00 0.00 0.00 0.00 0.00 0.00 0.00 0.00 0.00 0.00
0.00 0.00 0.00 0.00 0.00 0.00 0.00 0.00 0.00 0.00 0.00 0.00 0.00 0.00 0.00 0.00 0.00 0.00 0.00 0.00 0.00 0.00 0.00 0.00 0.00 0.00 0.00 0.00 0.00 0.00 0.00 0.00 0.00 0.00 0.00 0.00 0.00 0.00 0.00 0.00 0.00 0.00 0.00
0.00 0.00 0.00 0.00 0.00 0.00 0.00 0.00 0.00 0.00 0.00 0.00 0.00 0.00 0.00 0.00 0.00 0.00 0.00 0.00 0.00 0.00 0.00 0.00 0.00 0.00 0.00 0.00 0.00 0.00 0.00 0.00 0.00 0.00 0.00 0.00 0.00 0.00 0.00 0.00 0.00 0.00 0.00
0.00 0.00 0.00 0.00 0.00 0.00 0.00 0.00 0.00 0.00 0.00 0.00 0.00 0.00 0.00 0.00 0.00 0.00 0.00 0.00 0.00 0.00 0.00 0.00 0.00 0.00 0.00 0.00 0.00 0.00 0.00 0.00 0.00 0.00 0.00 0.00 0.00 0.00 0.00 0.00 0.00 0.00 0.00
0.00 0.00 0.00 0.00 0.00 0.00 0.00 0.00 0.00 0.00 0.00 0.00 0.00 0.00 0.00 0.00 0.00 0.00 0.00 0.00 0.00 0.00 0.00 0.00 0.00 0.00 0.00 0.00 0.00 0.00 0.00 0.00 0.00 0.00 0.00 0.00 0.00 0.00 0.00 0.00 0.00 0.00 0.00
0.00 0.00 0.00 0.00 0.00 0.00 0.00 0.00 0.00 0.00 0.00 0.00 0.00 0.00 0.00 0.00 0.00 0.00 0.00 0.00 0.00 0.00 0.00 0.00 0.00 0.00 0.00 0.00 0.00 0.00 0.00 0.00 0.00 0.00 0.00 0.00 0.00 0.00 0.00 0.00 0.00 0.00 0.00
0.00 0.00 0.00 0.00 0.00 0.00 0.00 0.00 0.00 0.00 0.00 0.00 0.00 0.00 0.00 0.00 0.00 0.00 0.00 0.00 0.00 0.00 0.00 0.00 0.00 0.00 0.00 0.00 0.00 0.00 0.00 0.00 0.00 0.00 0.00 0.00 0.00 0.00 0.00 0.00 0.00 0.00 0.00
MSLP
1014.37 1015.02 1015.44 1015.82 1016.03 1016.25 1016.53 1016.72 1016.87 1016.97 1017.12 1017.33 1017.61 1017.82 1018.03 1018.14 1018.27 1018.55 1018.75 1018.92 1019.16 1019.27 1019.17 1019.21 1019.24 1019.20 1019.19 1019.26 1019.26 1019.27 1019.40 1019.53 1019.72 1019.52 1019.56 1019.71 1020.17 1020.54 1020.82 1020.92 1021.05 1021.15 1021.15
1013.65 1014.34 1014.86 1015.30 1015.70 1015.97 1016.19 1016.38 1016.63 1016.86 1016.91 1016.92 1017.20 1017.77 1017.86 1017.95 1018.22 1018.36 1018.52 1018.61 1018.81 1018.89 1018.84 1019.08 1019.07 1018.98 1018.91 1018.89 1018.92 1019.11 1019.18 1019.09 1019.32 1019.45 1019.47 1019.83 1020.18 1020.43 1020.81 1021.13 1021.15 1021.18 1021.32
1013.34 1013.96 1014.49 1014.93 1015.30 1015.65 1015.87 1016.06 1016.30 1016.58 1016.77 1016.96 1017.04 1017.18 1017.39 1017.65 1017.86 1018.11 1018.31 1018.39 1018.48 1018.49 1018.53 1018.65 1018.56 1018.61 1018.73 1018.69 1018.77 1018.92 1018.91 1018.90 1019.00 1019.19 1019.22 1019.33 1019.79 1020.22 1020.87 1021.14 1021.27 1021.30 1021.26
1013.12 1013.59 1014.04 1014.51 1014.82 1015.09 1015.32 1015.66 1015.92 1016.11 1016.44 1016.62 1016.72 1016.80 1016.86 1017.05 1017.44 1017.69 1017.91 1018.00 1018.08 1018.11 1018.09 1018.03 1018.05 1018.21 1018.31 1018.31 1018.41 1018.37 1018.47 1018.78 1018.87 1018.94 1019.01 1019.14 1019.29 1019.83 1020.37 1020.92 1021.30 1021.21 1021.29
1013.46 1013.62 1013.74 1014.24 1014.46 1014.59 1014.90 1015.16 1015.35 1015.69 1015.88 1016.10 1016.37 1016.35 1016.45 1016.71 1016.84 1017.11 1017.32 1017.45 1017.58 1017.58 1017.62 1017.67 1017.71 1017.74 1017.71 1017.82 1018.00 1017.91 1018.22 1018.48 1018.61 1018.80 1018.87 1018.90 1019.02 1019.48 1019.78 1019.97 1020.56 1021.01 1021.21
1013.65 1013.70 1013.87 1014.22 1014.45 1014.46 1014.37 1014.66 1014.93 1015.09 1015.27 1015.51 1015.85 1016.05 1016.21 1016.16 1016.15 1016.34 1016.57 1016.89 1016.99 1017.19 1017.20 1017.16 1017.19 1017.33 1017.38 1017.46 1017.56 1017.64 1017.76 1018.04 1018.39 1018.50 1018.53 1018.66 1018.49 1018.48 1018.77 1019.26 1020.04 1020.93 1021.41
1013.61 1013.81 1013.68 1014.53 1014.45 1014.35 1014.23 1014.20 1014.34 1014.62 1014.85 1014.97 1015.22 1015.53 1015.72 1015.74 1015.73 1015.71 1015.91 1016.22 1016.31 1016.58 1016.66 1016.68 1016.71 1016.71 1016.86 1017.15 1017.39 1017.50 1017.60 1017.68 1017.77 1017.84 1018.05 1018.18 1018.26 1018.32 1018.28 1018.65 1018.99 1019.29 1019.51
1013.59 1013.52 1013.80 1014.27 1014.29 1014.15 1014.15 1014.05 1013.80 1013.82 1014.20 1014.33 1014.43 1014.64 1015.04 1015.28 1015.37 1015.35 1015.49 1015.76 1015.86 1016.05 1016.23 1016.28 1016.35 1016.31 1016.46 1016.79 1017.29 1017.64 1017.92 1018.04 1017.99 1017.91 1018.09 1018.41 1018.59 1018.62 1018.62 1018.30 1018.38 1018.74 1019.31
1013.62 1013.15 1013.45 1013.79 1013.90 1014.18 1014.09 1013.97 1013.95 1013.47 1013.59 1013.99 1013.91 1014.05 1014.49 1014.91 1015.30 1015.27 1015.23 1015.40 1015.58 1015.76 1015.96 1016.10 1016.21 1016.31 1016.36 1016.68 1017.02 1017.63 1018.18 1018.44 1018.36 1018.13 1018.27 1018.54 1018.66 1018.52 1018.17 1018.30 1018.48 1018.84 1019.38
1013.51 1013.35 1013.46 1013.34 1013.34 1013.25 1013.55 1013.76 1013.98 1013.75 1013.61 1013.91 1014.17 1014.40 1014.72 1015.33 1015.63 1015.59 1015.82 1015.53 1015.60 1015.84 1016.21 1016.35 1016.43 1016.40 1016.46 1016.67 1016.98 1017.48 1017.98 1018.25 1018.42 1018.63 1018.72 1018.86 1018.96 1018.91 1018.53 1018.51 1018.64 1018.80 1019.24
1012.84 1012.73 1012.89 1013.16 1013.38 1013.53 1013.84 1014.11 1014.12 1013.90 1014.02 1014.33 1014.65 1015.16 1015.59 1015.79 1016.11 1016.14 1016.12 1015.92 1015.75 1015.95 1016.17 1016.34 1016.59 1016.65 1016.63 1016.69 1016.90 1017.19 1017.33 1017.84 1018.39 1018.61 1018.90 1019.21 1019.39 1019.54 1019.64 1019.34 1019.06 1019.01 1019.31
1012.95 1013.07 1013.34 1013.58 1013.84 1014.22 1014.08 1014.28 1014.00 1014.40 1014.44 1014.65 1015.78 1015.44 1016.09 1016.80 1016.71 1016.59 1016.39 1016.29 1016.07 1016.06 1016.52 1016.96 1017.10 1016.96 1016.72 1016.79 1016.85 1017.05 1017.34 1017.79 1018.25 1018.85 1019.31 1019.61 1019.81 1020.14 1020.38 1020.33 1019.90 1019.90 1019.70
1013.20 1013.57 1013.84 1014.18 1014.40 1014.48 1014.56 1014.63 1014.60 1014.83 1015.34 1015.47 1016.00 1015.77 1016.57 1016.95 1017.15 1017.05 1016.73 1016.46 1016.39 1016.71 1017.04 1017.19 1017.38 1017.33 1017.19 1017.30 1017.71 1018.00 1018.07 1018.29 1018.65 1019.07 1019.27 1020.04 1020.22 1020.30 1020.42 1020.46 1020.23 1020.17 1020.33
1013.70 1014.13 1014.40 1014.66 1015.09 1015.49 1015.62 1015.56 1015.71 1015.88 1016.16 1016.06 1016.16 1016.14 1016.89 1016.02 1016.70 1017.21 1016.90 1016.54 1016.97 1017.32 1017.40 1017.70 1017.85 1017.80 1017.80 1018.13 1018.39 1018.54 1018.67 1018.89 1019.17 1019.64 1020.08 1020.33 1020.44 1020.55 1020.79 1020.63 1020.82 1021.07 1021.09
1014.35 1014.66 1015.17 1015.34 1015.82 1016.38 1016.68 1016.85 1016.61 1017.03 1016.93 1016.54 1016.89 1017.24 1017.16 1017.11 1017.59 1017.22 1017.54 1017.17 1017.59 1017.61 1018.05 1018.19 1018.01 1018.05 1018.29 1018.54 1018.81 1018.99 1019.10 1019.27 1019.55 1019.93 1020.18 1020.25 1020.42 1020.56 1020.77 1020.76 1020.80 1020.79 1020.82
1014.99 1015.22 1015.65 1016.14 1016.41 1016.89 1017.19 1017.46 1017.51 1017.80 1017.33 1017.05 1017.20 1017.47 1017.87 1017.84 1017.65 1017.77 1017.79 1017.96 1017.86 1018.43 1018.34 1018.24 1018.45 1018.60 1018.88 1019.00 1019.13 1019.27 1019.48 1019.68 1020.07 1020.27 1020.51 1020.61 1020.78 1020.90 1020.92 1020.82 1020.78 1020.96 1021.13
1015.20 1015.67 1016.06 1016.30 1016.54 1017.11 1017.32 1017.38 1017.61 1017.95 1017.89 1017.82 1017.79 1017.73 1018.05 1018.33 1018.44 1018.67 1018.79 1018.51 1018.75 1018.53 1018.40 1018.72 1018.68 1019.05 1019.50 1019.66 1019.74 1019.79 1020.03 1020.16 1020.42 1020.73 1020.72 1020.84 1020.92 1020.94 1020.89 1021.02 1020.98 1021.08 1021.39
1015.59 1015.80 1016.15 1016.49 1016.62 1016.95 1017.50 1017.42 1017.89 1018.08 1018.33 1018.41 1018.48 1018.51 1018.33 1018.58 1018.98 1019.32 1019.32 1019.56 1019.15 1018.84 1018.66 1018.88 1019.09 1018.97 1019.40 1019.95 1020.16 1020.07 1020.15 1020.34 1020.66 1020.77 1020.87 1021.01 1021.00 1021.14 1021.26 1021.28 1021.20 1021.30 1021.65
1015.61 1015.94 1016.42 1016.76 1016.94 1016.99 1017.32 1017.70 1018.13 1018.35 1018.73 1018.92 1019.09 1019.28 1019.31 1019.28 1019.33 1019.19 1019.20 1019.52 1019.49 1019.33 1019.16 1019.27 1019.30 1019.35 1019.64 1019.87 1020.21 1020.35 1020.37 1020.43 1020.64 1020.88 1020.94 1021.11 1021.26 1021.34 1021.58 1021.79 1021.70 1021.59 1021.92
1015.76 1016.15 1016.46 1016.83 1016.91 1017.17 1017.37 1017.88 1017.98 1018.54 1018.92 1019.22 1019.42 1019.49 1019.47 1019.69 1019.51 1019.34 1019.21 1019.31 1019.43 1019.38 1019.57 1019.39 1019.75 1019.78 1019.91 1020.03 1020.41 1020.60 1020.68 1020.55 1020.71 1020.85 1020.99 1021.11 1021.23 1021.35 1021.68 1021.90 1021.86 1021.97 1022.11
1015.89 1016.09 1016.34 1016.84 1016.96 1016.98 1017.40 1017.77 1018.02 1018.32 1018.57 1018.95 1019.02 1018.93 1018.86 1018.92 1018.92 1018.96 1018.90 1018.84 1018.85 1018.91 1018.98 1019.12 1019.63 1019.74 1019.99 1019.93 1020.15 1020.50 1020.56 1020.66 1020.72 1020.81 1020.85 1021.16 1021.44 1021.56 1021.50 1021.68 1021.88 1021.97 1022.18
1015.61 1016.02 1016.38 1016.66 1016.94 1017.10 1017.27 1017.51 1017.75 1017.93 1018.41 1018.48 1018.36 1018.39 1018.49 1018.90 1018.89 1018.73 1018.54 1018.41 1018.23 1018.38 1018.56 1018.94 1019.26 1019.37 1019.64 1019.84 1020.08 1020.28 1020.32 1020.37 1020.45 1020.60 1020.86 1021.06 1021.27 1021.44 1021.54 1021.81 1022.12 1022.26 1022.29
1015.58 1015.91 1016.16 1016.35 1016.54 1016.54 1016.68 1016.96 1017.12 1017.22 1017.45 1017.84 1018.00 1018.06 1018.40 1018.65 1018.48 1018.39 1018.14 1018.04 1018.03 1017.92 1018.09 1018.37 1018.64 1018.88 1019.12 1019.41 1019.65 1019.81 1019.92 1019.95 1019.99 1020.28 1020.70 1021.07 1021.29 1021.43 1021.62 1021.87 1021.99 1022.32 1022.59
1015.34 1015.74 1015.97 1016.14 1016.33 1016.34 1016.41 1016.54 1016.63 1016.97 1017.18 1017.21 1017.25 1017.38 1017.69 1017.92 1017.92 1017.58 1017.52 1017.72 1017.69 1017.59 1017.48 1017.76 1018.07 1018.07 1018.50 1018.92 1019.15 1019.31 1019.55 1019.52 1019.62 1019.89 1020.16 1020.66 1021.05 1021.38 1021.53 1021.80 1022.07 1022.10 1022.31
1014.98 1015.35 1015.58 1015.67 1015.68 1015.65 1015.82 1016.04 1016.36 1016.67 1016.66 1016.58 1016.64 1016.82 1016.90 1017.21 1017.33 1017.10 1017.03 1017.22 1017.32 1017.48 1017.36 1017.48 1017.71 1017.78 1017.76 1018.24 1018.80 1018.97 1019.01 1019.39 1019.59 1019.64 1019.99 1020.45 1020.81 1021.01 1021.34 1021.58 1021.82 1021.94 1021.90
1014.71 1014.94 1015.20 1015.33 1015.30 1015.20 1015.27 1015.46 1015.56 1015.78 1015.90 1016.00 1015.80 1015.74 1015.93 1016.22 1016.23 1016.34 1016.52 1016.76 1016.87 1016.98 1017.12 1017.06 1017.09 1017.54 1017.90 1017.95 1018.05 1018.30 1018.68 1018.96 1019.14 1019.34 1019.74 1020.21 1020.47 1020.67 1020.97 1021.14 1021.25 1021.38 1021.43
Thickness
5762 5761 5759 5760 5760 5760 5759 5760 5762 5763 5764 5764 5763 5763 5763 5764 5766 5766 5767 5767 5764 5764 5767 5767 5766 5768 5769 5769 5769 5767 5765 5763 5757 5761 5762 5762 5757 5752 5747 5746 5743 5742 5740
5766 5765 5763 5762 5761 5760 5758 5759 5760 5761 5764 5767 5766 5761 5762 5763 5762 5763 5764 5765 5764 5765 5767 5764 5765 5768 5768 5769 5768 5765 5764 5765 5760 5757 5759 5757 5754 5750 5745 5741 5738 5737 5736
5763 5764 5764 5763 5762 5760 5761 5759 5758 5759 5761 5763 5764 5765 5765 5763 5762 5761 5761 5763 5764 5765 5765 5764 5765 5765 5764 5766 5766 5764 5764 5763 5761 5757 5758 5759 5754 5749 5741 5737 5735 5735 5732
5759 5759 5760 5761 5763 5763 5764 5763 5761 5759 5757 5759 5762 5764 5766 5766 5763 5762 5762 5762 5762 5763 5764 5765 5766 5765 5764 5765 5764 5765 5764 5759 5757 5755 5755 5755 5755 5749 5742 5735 5731 5731 5728
5749 5753 5756 5756 5758 5761 5763 5765 5765 5763 5761 5760 5759 5762 5765 5766 5766 5765 5763 5762 5761 5761 5763 5764 5764 5766 5767 5766 5763 5764 5762 5758 5755 5752 5751 5752 5752 5747 5741 5739 5732 5726 5723
5741 5745 5748 5749 5750 5753 5757 5759 5762 5764 5763 5761 5760 5760 5761 5765 5768 5769 5767 5763 5763 5762 5761 5763 5764 5764 5763 5763 5763 5762 5761 5756 5751 5750 5749 5748 5749 5749 5746 5739 5730 5721 5715
5731 5736 5737 5738 5742 5747 5750 5754 5757 5757 5758 5760 5759 5758 5759 5762 5766 5769 5768 5766 5765 5763 5762 5763 5763 5764 5763 5760 5758 5757 5755 5753 5753 5752 5749 5747 5745 5743 5742 5738 5733 5728 5725
5721 5727 5727 5726 5730 5740 5744 5749 5753 5756 5755 5757 5760 5760 5758 5759 5761 5765 5765 5763 5763 5761 5760 5761 5760 5761 5760 5757 5753 5749 5746 5743 5743 5744 5741 5737 5733 5731 5729 5731 5730 5725 5717
5718 5725 5727 5722 5726 5730 5735 5741 5744 5750 5751 5751 5757 5758 5756 5755 5751 5753 5757 5759 5757 5756 5757 5755 5753 5753 5753 5750 5747 5741 5735 5731 5731 5732 5730 5727 5724 5723 5723 5721 5719 5714 5708
5715 5718 5716 5721 5726 5729 5730 5732 5733 5738 5743 5744 5744 5746 5746 5744 5742 5744 5744 5748 5749 5746 5743 5743 5742 5742 5742 5740 5739 5734 5727 5722 5721 5718 5716 5714 5712 5711 5711 5709 5706 5704 5696
5721 5723 5722 5721 5721 5722 5720 5722 5722 5726 5729 5730 5728 5728 5729 5731 5731 5731 5732 5735 5738 5738 5736 5734 5733 5732 5730 5730 5729 5727 5724 5717 5711 5707 5703 5699 5696 5693 5690 5690 5690 5688 5682
5712 5713 5713 5712 5711 5708 5710 5710 5714 5711 5716 5715 5708 5714 5713 5710 5714 5718 5720 5722 5724 5725 5722 5718 5717 5718 5719 5719 5719 5716 5711 5706 5701 5694 5688 5682 5678 5674 5670 5670 5671 5667 5666
5705 5702 5702 5701 5700 5701 5702 5700 5703 5703 5701 5701 5698 5700 5697 5698 5698 5702 5706 5709 5710 5708 5705 5704 5703 5704 5704 5701 5697 5695 5693 5689 5683 5679 5675 5665 5662 5659 5657 5655 5653 5652 5648
5694 5692 5692 5692 5689 5687 5688 5689 5689 5690 5688 5689 5688 5688 5681 5692 5692 5689 5692 5696 5693 5690 5689 5688 5686 5686 5686 5683 5680 5678 5675 5672 5667 5662 5657 5653 5649 5646 5642 5640 5634 5629 5627
5680 5680 5678 5679 5676 5671 5670 5671 5673 5669 5671 5680 5677 5674 5675 5677 5674 5676 5674 5678 5676 5675 5671 5670 5672 5671 5669 5667 5663 5660 5659 5658 5654 5647 5644 5642 5639 5635 5630 5628 5625 5622 5620
5666 5668 5667 5664 5662 5660 5660 5658 5657 5655 5658 5661 5662 5662 5657 5658 5660 5659 5659 5658 5659 5652 5652 5654 5653 5653 5652 5651 5649 5647 5644 5641 5637 5633 5629 5627 5624 5621 5619 5615 5613 5610 5607
5657 5654 5652 5653 5653 5649 5650 5652 5652 5649 5648 5648 5649 5651 5647 5646 5646 5645 5644 5646 5642 5645 5647 5642 5643 5641 5636 5635 5633 5632 5630 5628 5626 5620 5618 5615 5611 5609 5607 5602 5599 5595 5589
5646 5645 5645 5645 5646 5644 5640 5644 5638 5639 5640 5640 5637 5638 5640 5636 5632 5628 5629 5626 5631 5633 5636 5634 5631 5633 5628 5622 5619 5619 5618 5615 5611 5608 5604 5601 5598 5594 5591 5588 5585 5582 5575
5641 5640 5636 5634 5633 5635 5634 5631 5629 5629 5627 5626 5626 5624 5623 5623 5622 5623 5622 5619 5619 5619 5621 5619 5620 5619 5616 5612 5607 5604 5603 5601 5598 5594 5592 5588 5584 5581 5576 5571 5568 5566 5560
5637 5635 5633 5630 5630 5628 5626 5623 5622 5619 5617 5615 5614 5615 5614 5613 5615 5615 5615 5613 5610 5610 5607 5608 5604 5604 5602 5599 5594 5590 5588 5589 5586 5583 5580 5577 5573 5569 5563 5559 5556 5552 5547
5630 5629 5628 5625 5625 5626 5623 5620 5617 5614 5613 5609 5609 5609 5609 5611 5610 5609 5608 5607 5605 5604 5603 5599 5593 5591 5588 5588 5585 5581 5579 5576 5574 5572 5569 5565 5560 5556 5552 5549 5545 5541 5536
5628 5625 5623 5621 5619 5619 5618 5616 5614 5613 5607 5606 5607 5606 5603 5600 5600 5600 5600 5600 5600 5597 5595 5590 5586 5585 5582 5579 5575 5572 5571 5569 5566 5563 5559 5555 5551 5546 5542 5536 5530 5525 5521
5626 5624 5622 5620 5619 5620 5619 5616 5614 5614 5613 5608 5606 5604 5598 5597 5596 5596 5597 5596 5595 5594 5591 5587 5584 5581 5578 5574 5570 5567 5563 5561 5559 5554 5548 5542 5538 5533 5528 5522 5517 5510 5505
5625 5622 5620 5617 5615 5614 5613 5612 5610 5606 5605 5604 5604 5602 5598 5594 5593 5594 5592 5589 5589 5587 5587 5584 5579 5577 5572 5566 5562 5559 5554 5551 5548 5543 5537 5531 5525 5519 5515 5509 5504 5500 5495
5625 5622 5620 5618 5616 5615 5611 5608 5604 5600 5600 5600 5598 5595 5592 5589 5587 5587 5586 5584 5581 5578 5577 5574 5570 5567 5566 5560 5552 5548 5546 5540 5536 5533 5528 5522 5516 5511 5505 5500 5495 5490 5488
5622 5620 5617 5614 5614 5613 5609 5606 5604 5601 5599 5597 5597 5596 5593 5589 5587 5584 5580 5577 5574 5571 5568 5567 5566 5559 5552 5550 5547 5542 5537 5533 5529 5524 5518 5512 5506 5501 5495 5492 5488 5483 5479